Marysville, MI

10:16 PM EST on February 12, 2016 (GMT -0500)
Saint Clair County International

Weather History for KPHN - February, 2013

Change the Weather History Date:

Wednesday, February 27, 2013

  Actual Average (KMTC) Record (KMTC)
Temperature  
Mean Temperature 36 °F -  
Max Temperature 39 °F 37 °F 55 °F (1997)
Min Temperature 33 °F 23 °F -6 °F (2015)
Degree Days  
Heating Degree Days 29    
Moisture  
Dew Point 33 °F    
Average Humidity 92    
Maximum Humidity 100    
Minimum Humidity 81    
Precipitation  
Precipitation 0.00 in - - ()
Sea Level Pressure  
Sea Level Pressure 29.54 in    
Wind  
Wind Speed 10 mph (SSE)    
Max Wind Speed 15 mph    
Max Gust Speed 23 mph    
Visibility 7 miles    
Events Snow    
Averages and records for this station are not official NWS values.
T = Trace of Precipitation, MM = Missing Value Source: NWS Daily Summary

Daily Weather History Graph

Daily Weather History Graph

Search for Another Location

Airport or City:

Trip Planner

Search our weather history database for the weather conditions in past years. The results will help you decide how hot, cold, wet, or windy it might be!

Date:

Astronomy

Feb. 27, 2013 Rise Set
Actual Time 7:08 AM EST 6:17 PM EST
Civil Twilight 6:40 AM EST 6:45 PM EST
Nautical Twilight 6:07 AM EST 7:18 PM EST
Astronomical Twilight 5:34 AM EST 7:51 PM EST
Moon 8:42 PM EST (2/27) 7:39 AM EST (2/27)
Length of Visible Light 12h 05m
Length of Day
11h 08m
Waning Gibbous, 96% of the Moon is Illuminated
Feb 27
Waning Gibbous
Mar 4
Last Quarter
Mar 11
New
Mar 19
First Quarter
Mar 27
Full

Hourly Weather History & Observations

Time (EST) Temp. Windchill Dew Point Humidity Pressure Visibility Wind Dir Wind Speed Gust Speed Precip Events Conditions
12:18 AM 35.6 °F 27.5 °F 33.8 °F 93% 29.57 in 2.5 mi East 11.5 mph - N/A Snow Light Snow
12:38 AM 33.8 °F 24.8 °F 33.8 °F 100% 29.56 in 2.0 mi East 12.7 mph 16.1 mph N/A Snow Light Snow
12:59 AM 33.8 °F 24.8 °F 33.8 °F 100% 29.55 in 2.0 mi East 12.7 mph 18.4 mph N/A Snow Light Snow
1:18 AM 33.8 °F 24.8 °F 33.8 °F 100% 29.54 in 1.0 mi East 12.7 mph - N/A Snow Light Snow
1:39 AM 33.8 °F 25.8 °F 33.8 °F 100% 29.54 in 0.8 mi East 10.4 mph 20.7 mph N/A Snow Snow
1:59 AM 33.8 °F 24.8 °F 33.8 °F 100% 29.53 in 1.0 mi East 12.7 mph 17.3 mph N/A Snow Light Snow
2:18 AM 33.8 °F 24.3 °F 33.8 °F 100% 29.53 in 1.8 mi East 13.8 mph 18.4 mph N/A Snow Light Snow
2:39 AM 33.8 °F 24.3 °F 33.8 °F 100% 29.52 in 1.8 mi East 13.8 mph 23.0 mph N/A Snow Light Snow
2:58 AM 33.8 °F 24.3 °F 33.8 °F 100% 29.51 in 4.0 mi East 13.8 mph 19.6 mph N/A Snow Light Snow
3:18 AM 35.6 °F 26.2 °F 33.8 °F 93% 29.51 in 4.0 mi East 15.0 mph 20.7 mph N/A Snow Light Snow
3:39 AM 35.6 °F 26.6 °F 33.8 °F 93% 29.50 in 5.0 mi East 13.8 mph - N/A Snow Light Snow
3:58 AM 35.6 °F 28.0 °F 33.8 °F 93% 29.49 in 4.0 mi ESE 10.4 mph - N/A Snow Light Snow
4:19 AM 33.8 °F 26.4 °F 33.8 °F 100% 29.49 in 2.0 mi East 9.2 mph - N/A Snow Light Snow
4:39 AM 33.8 °F 25.8 °F 33.8 °F 100% 29.49 in 4.0 mi East 10.4 mph - N/A Snow Light Snow
4:59 AM 35.6 °F 28.0 °F 33.8 °F 93% 29.49 in 7.0 mi ESE 10.4 mph 19.6 mph N/A Snow Light Snow
5:19 AM 35.6 °F 26.6 °F 33.8 °F 93% 29.49 in 4.0 mi ESE 13.8 mph 17.3 mph N/A Snow Light Snow
5:38 AM 35.6 °F 28.0 °F 33.8 °F 93% 29.49 in 7.0 mi East 10.4 mph 17.3 mph N/A Snow Light Snow
5:59 AM 35.6 °F 27.1 °F 33.8 °F 93% 29.50 in 7.0 mi ESE 12.7 mph - N/A Snow Light Snow
6:18 AM 35.6 °F 28.0 °F 33.8 °F 93% 29.49 in 7.0 mi ESE 10.4 mph 20.7 mph N/A   Overcast
6:39 AM 35.6 °F 27.5 °F 33.8 °F 93% 29.50 in 10.0 mi ESE 11.5 mph - N/A   Overcast
6:59 AM 35.6 °F 28.0 °F 33.8 °F 93% 29.50 in 10.0 mi ESE 10.4 mph 18.4 mph N/A Snow Light Snow
7:18 AM 35.6 °F 28.0 °F 33.8 °F 93% 29.50 in 4.0 mi ESE 10.4 mph - N/A   Overcast
7:39 AM 35.6 °F 28.0 °F 33.8 °F 93% 29.50 in 4.0 mi ESE 10.4 mph 17.3 mph N/A   Overcast
7:58 AM 35.6 °F 28.6 °F 33.8 °F 93% 29.51 in 10.0 mi ESE 9.2 mph - N/A   Overcast
8:19 AM 35.6 °F 29.2 °F 33.8 °F 93% 29.52 in 10.0 mi ESE 8.1 mph - N/A   Overcast
8:39 AM 35.6 °F 29.9 °F 33.8 °F 93% 29.52 in 7.0 mi ESE 6.9 mph - N/A   Overcast
8:58 AM 35.6 °F 30.7 °F 33.8 °F 93% 29.52 in 10.0 mi ESE 5.8 mph - N/A   Overcast
9:19 AM 35.6 °F 30.7 °F 33.8 °F 93% 29.52 in 7.0 mi SE 5.8 mph - N/A   Overcast
9:38 AM 35.6 °F 29.9 °F 33.8 °F 93% 29.52 in 2.5 mi SE 6.9 mph - N/A   Overcast
9:59 AM 35.6 °F 29.9 °F 35.6 °F 100% 29.53 in 1.5 mi South 6.9 mph - N/A   Overcast
10:19 AM 35.6 °F 29.2 °F 35.6 °F 100% 29.53 in 4.0 mi South 8.1 mph - N/A   Overcast
10:39 AM 37.4 °F 32.1 °F 35.6 °F 93% 29.53 in 5.0 mi SE 6.9 mph - N/A   Overcast
10:59 AM 37.4 °F 32.8 °F 35.6 °F 93% 29.53 in 10.0 mi South 5.8 mph - N/A   Overcast
11:18 AM 37.4 °F 32.8 °F 35.6 °F 93% 29.54 in 10.0 mi South 5.8 mph - N/A   Overcast
11:39 AM 37.4 °F 32.1 °F 35.6 °F 93% 29.54 in 10.0 mi South 6.9 mph - N/A   Overcast
11:58 AM 37.4 °F 31.4 °F 33.8 °F 87% 29.54 in 10.0 mi South 8.1 mph - N/A   Overcast
12:18 PM 37.4 °F 32.1 °F 33.8 °F 87% 29.55 in 10.0 mi South 6.9 mph - N/A   Overcast
12:39 PM 37.4 °F 32.1 °F 35.6 °F 93% 29.54 in 10.0 mi SSW 6.9 mph - N/A   Overcast
12:58 PM 37.4 °F 31.4 °F 33.8 °F 87% 29.53 in 10.0 mi SSW 8.1 mph - N/A   Overcast
1:19 PM 37.4 °F 31.4 °F 33.8 °F 87% 29.53 in 10.0 mi South 8.1 mph - N/A   Overcast
1:39 PM 37.4 °F 32.1 °F 33.8 °F 87% 29.53 in 10.0 mi South 6.9 mph - N/A   Overcast
1:58 PM 37.4 °F 31.4 °F 33.8 °F 87% 29.53 in 10.0 mi South 8.1 mph - N/A   Overcast
2:19 PM 37.4 °F 31.4 °F 33.8 °F 87% 29.53 in 10.0 mi South 8.1 mph - N/A   Overcast
2:38 PM 37.4 °F 32.1 °F 33.8 °F 87% 29.53 in 10.0 mi South 6.9 mph - N/A   Overcast
2:58 PM 37.4 °F 30.8 °F 33.8 °F 87% 29.53 in 10.0 mi South 9.2 mph - N/A   Overcast
3:18 PM 37.4 °F 30.3 °F 33.8 °F 87% 29.54 in 10.0 mi South 10.4 mph - N/A   Overcast
3:38 PM 37.4 °F 30.8 °F 33.8 °F 87% 29.54 in 10.0 mi South 9.2 mph - N/A   Overcast
3:59 PM 39.2 °F 34.2 °F 33.8 °F 81% 29.54 in 10.0 mi SW 6.9 mph - N/A   Overcast
4:18 PM 39.2 °F 32.5 °F 33.8 °F 81% 29.55 in 10.0 mi SSW 10.4 mph - N/A   Overcast
4:39 PM 37.4 °F 32.1 °F 32.0 °F 81% 29.55 in 10.0 mi SW 6.9 mph - N/A   Overcast
4:59 PM 37.4 °F 32.8 °F 32.0 °F 81% 29.55 in 10.0 mi SSW 5.8 mph - N/A   Overcast
5:18 PM 37.4 °F 31.4 °F 32.0 °F 81% 29.56 in 10.0 mi South 8.1 mph - N/A   Overcast
5:39 PM 35.6 °F 29.2 °F 32.0 °F 87% 29.56 in 10.0 mi South 8.1 mph - N/A   Overcast
5:58 PM 35.6 °F 29.9 °F 32.0 °F 87% 29.56 in 10.0 mi South 6.9 mph - N/A   Overcast
6:18 PM 35.6 °F 30.7 °F 32.0 °F 87% 29.57 in 10.0 mi NNW 5.8 mph - N/A   Overcast
6:39 PM 35.6 °F 30.7 °F 32.0 °F 87% 29.57 in 10.0 mi South 5.8 mph - N/A   Overcast
6:58 PM 35.6 °F 30.7 °F 32.0 °F 87% 29.58 in 7.0 mi South 5.8 mph - N/A   Overcast
7:19 PM 35.6 °F 30.7 °F 33.8 °F 93% 29.58 in 7.0 mi SSW 5.8 mph - N/A   Overcast
7:39 PM 33.8 °F 28.6 °F 32.0 °F 93% 29.58 in 7.0 mi SSW 5.8 mph - N/A   Overcast
7:58 PM 33.8 °F 29.6 °F 32.0 °F 93% 29.57 in 7.0 mi SSW 4.6 mph - N/A   Overcast
8:19 PM 33.8 °F 27.7 °F 32.0 °F 93% 29.57 in 10.0 mi SSW 6.9 mph - N/A   Overcast
8:38 PM 33.8 °F 29.6 °F 32.0 °F 93% 29.57 in 10.0 mi SSW 4.6 mph - N/A   Overcast
8:59 PM 33.8 °F 28.6 °F 32.0 °F 93% 29.57 in 10.0 mi SSW 5.8 mph - N/A   Overcast
9:19 PM 33.8 °F 30.8 °F 32.0 °F 93% 29.57 in 10.0 mi SSW 3.5 mph - N/A   Overcast
9:38 PM 33.8 °F 29.6 °F 32.0 °F 93% 29.57 in 7.0 mi SSW 4.6 mph - N/A   Overcast
9:59 PM 33.8 °F 29.6 °F 32.0 °F 93% 29.57 in 7.0 mi SSW 4.6 mph - N/A   Overcast
10:18 PM 33.8 °F 28.6 °F 32.0 °F 93% 29.56 in 7.0 mi South 5.8 mph - N/A   Overcast
10:38 PM 33.8 °F 30.8 °F 32.0 °F 93% 29.56 in 4.0 mi SSW 3.5 mph - N/A   Overcast
10:59 PM 33.8 °F 29.6 °F 32.0 °F 93% 29.56 in 4.0 mi SSW 4.6 mph - N/A   Overcast
11:18 PM 33.8 °F 29.6 °F 32.0 °F 93% 29.55 in 4.0 mi SSW 4.6 mph - N/A   Overcast
11:39 PM 33.8 °F 29.6 °F 32.0 °F 93% 29.55 in 4.0 mi SSW 4.6 mph - N/A   Overcast
11:59 PM 33.8 °F 30.8 °F 32.0 °F 93% 29.54 in 4.0 mi SSW 3.5 mph - N/A   Overcast